Teterboro, NJ

7:30 AM EDT on March 23, 2017 (GMT -0400)
Teterboro

Weather History for KTEB - October, 2014

Change the Weather History Date:

Wednesday, October 15, 2014

  Actual Average Record
Temperature  
Mean Temperature 76 °F -  
Max Temperature 82 °F 63 °F 82 °F (2014)
Min Temperature 70 °F 43 °F 19 °F (2001)
Cooling Degree Days 10    
Growing Degree Days 26 (Base 50)    
Moisture  
Dew Point 65 °F    
Average Humidity 75    
Maximum Humidity 87    
Minimum Humidity 60    
Precipitation  
Precipitation 0.33 in - - ()
Sea Level Pressure  
Sea Level Pressure 29.95 in    
Wind  
Wind Speed 11 mph (SSE)    
Max Wind Speed 22 mph    
Max Gust Speed 30 mph    
Visibility 8 miles    
Events Rain    
Averages and records for this station are not official NWS values.
T = Trace of Precipitation, MM = Missing Value Source: NWS Daily Summary

Daily Weather History Graph

Daily Weather History Graph

Search for Another Location

Airport or City:

Trip Planner

Search our weather history database for the weather conditions in past years. The results will help you decide how hot, cold, wet, or windy it might be!

Date:

Astronomy

Oct. 15, 2014 Rise Set
Actual Time 7:07 AM EDT 6:15 PM EDT
Civil Twilight 6:39 AM EDT 6:43 PM EDT
Nautical Twilight 6:08 AM EDT 7:15 PM EDT
Astronomical Twilight 5:36 AM EDT 7:46 PM EDT
Moon No Moon Rise 1:48 PM EDT (10/15)
Length of Visible Light 12h 03m
Length of Day
11h 08m
Waning Gibbous, 51% of the Moon is Illuminated
Oct 15
Waning Gibbous
Oct 15
Last Quarter
Oct 23
New
Oct 30
First Quarter
Nov 6
Full

Hourly Weather History & Observations

Time (EDT) Temp. Heat Index Dew Point Humidity Pressure Visibility Wind Dir Wind Speed Gust Speed Precip Events Conditions
12:01 AM 71.6 °F - 62.6 °F 73% 30.09 in 10.0 mi South 9.2 mph - N/A   Overcast
12:16 AM 71.6 °F - 62.6 °F 73% 30.09 in 10.0 mi South 6.9 mph - N/A   Overcast
12:51 AM 71.1 °F - 63.0 °F 75% 30.09 in 10.0 mi South 9.2 mph - N/A   Overcast
1:51 AM 71.6 °F - 64.4 °F 78% 30.08 in 10.0 mi South 10.4 mph - N/A   Overcast
2:51 AM 71.1 °F - 64.0 °F 78% 30.06 in 10.0 mi South 8.1 mph - N/A   Overcast
3:51 AM 71.1 °F - 64.0 °F 78% 30.05 in 10.0 mi South 9.2 mph - N/A   Overcast
4:51 AM 71.1 °F - 64.0 °F 78% 30.04 in 10.0 mi South 6.9 mph - N/A   Overcast
5:51 AM 70.0 °F - 64.9 °F 84% 30.03 in 10.0 mi South 3.5 mph - N/A   Overcast
6:51 AM 71.1 °F - 64.9 °F 81% 30.03 in 10.0 mi South 6.9 mph - N/A   Overcast
7:51 AM 72.0 °F - 64.9 °F 78% 30.03 in 10.0 mi SSE 9.2 mph - N/A   Overcast
8:51 AM 73.0 °F - 64.9 °F 76% 30.03 in 10.0 mi SSE 11.5 mph 23.0 mph N/A   Overcast
9:51 AM 75.0 °F - 66.0 °F 73% 30.03 in 10.0 mi SSE 12.7 mph 19.6 mph N/A   Overcast
10:51 AM 77.0 °F - 66.0 °F 69% 30.01 in 10.0 mi SSE 12.7 mph 24.2 mph N/A   Overcast
11:51 AM 81.0 °F 83.0 °F 66.0 °F 60% 30.00 in 10.0 mi SSE 17.3 mph 29.9 mph 0.00 in   Overcast
12:51 PM 78.1 °F - 64.9 °F 64% 29.97 in 10.0 mi SSE 16.1 mph 24.2 mph 0.00 in   Mostly Cloudy
1:51 PM 77.0 °F - 66.0 °F 69% 29.94 in 10.0 mi South 21.9 mph 28.8 mph N/A   Mostly Cloudy
2:51 PM 78.1 °F - 64.9 °F 64% 29.93 in 10.0 mi South 15.0 mph 28.8 mph N/A   Mostly Cloudy
3:51 PM 77.0 °F - 64.9 °F 66% 29.91 in 10.0 mi SSE 16.1 mph 24.2 mph N/A   Overcast
4:51 PM 78.1 °F - 64.9 °F 64% 29.90 in 10.0 mi SSE 15.0 mph 25.3 mph N/A   Overcast
5:18 PM 75.2 °F - 66.2 °F 73% 29.90 in 10.0 mi SSE 15.0 mph 25.3 mph 0.00 in Rain Light Rain
5:47 PM 75.2 °F - 66.2 °F 73% 29.89 in 5.0 mi SSE 16.1 mph 23.0 mph 0.01 in Rain Light Rain
5:51 PM 75.9 °F - 66.9 °F 74% 29.89 in 5.0 mi SSE 11.5 mph 23.0 mph 0.01 in Rain Light Rain
6:09 PM 80.6 °F 82.7 °F 66.2 °F 61% 29.89 in 10.0 mi SSE 13.8 mph 23.0 mph 0.00 in Rain Light Rain
6:51 PM 75.0 °F - 66.9 °F 76% 29.89 in 8.0 mi SSE 13.8 mph 23.0 mph 0.03 in Rain Light Rain
7:15 PM 73.4 °F - 66.2 °F 78% 29.89 in 10.0 mi SSE 9.2 mph 21.9 mph 0.00 in   Overcast
7:51 PM 73.9 °F - 66.9 °F 79% 29.89 in 8.0 mi SSE 15.0 mph 26.5 mph 0.00 in Rain Rain
8:26 PM 73.4 °F - 66.2 °F 78% 29.88 in 8.0 mi SSE 11.5 mph 18.4 mph 0.00 in   Overcast
8:51 PM 73.0 °F - 66.9 °F 81% 29.88 in 8.0 mi SSE 12.7 mph - 0.00 in   Overcast
9:11 PM 73.4 °F - 66.2 °F 78% 29.87 in 10.0 mi SSE 11.5 mph 19.6 mph N/A   Overcast
9:51 PM 72.0 °F - 66.9 °F 84% 29.87 in 4.0 mi South 12.7 mph 19.6 mph 0.06 in Rain Light Rain
10:51 PM 71.1 °F - 66.9 °F 87% 29.86 in 3.0 mi South 13.8 mph 21.9 mph 0.18 in   Drizzle
10:53 PM 71.6 °F - 66.2 °F 83% 29.85 in 2.5 mi South 13.8 mph 21.9 mph 0.00 in Rain Rain
10:58 PM 71.6 °F - 66.2 °F 83% 29.85 in 4.0 mi South 15.0 mph 21.9 mph 0.03 in Rain Rain
11:05 PM 71.6 °F - 66.2 °F 83% 29.84 in 3.0 mi South 12.7 mph 19.6 mph 0.04 in Rain Rain
11:51 PM 71.1 °F - 66.9 °F 87% 29.83 in 3.0 mi South 8.1 mph - 0.05 in   Overcast